Weather in Petrovskiy Zavod

Russia / Republic of Tatarstan     55°19′07″N   52°29′43″E
temp.,
°C
wind,
m/s
gust,
m/s
humid.,
%
clouds,
%
prec.,
mm/h
press.,
hPa
HPBL,
m
26 july, mon
mon2600:00+11wsw22605 0.0 102210
03:00+10wsw11635 0.0 102210
06:00+14sw23545 0.0 1022136
09:00+19w343619 0.0 10221847
12:00+20wnw453725 0.0 10222004
15:00+20w244369 0.0 1020940
18:00+18wsw3553100 0.0 1020175
21:00+14wsw346048 0.0 102056
27 july, tue
tue2700:00+15sw375991 0.0 1019159
03:00+12wsw49705 0.0 1019150
06:00+16wsw5106341 0.0 1018280
09:00+21w684736 0.0 10171021
12:00+19nw7954100 0.0 1016773
15:00+22wnw794813 0.1 10141566
18:00+17nnw610842 2.4 1014581
21:00+13nnw22892 2.6 101516
28 july, wed
wed2800:00+12nw118694 0.0 101610
03:00+11nw2388100 0.0 101648
06:00+14nw24780 0.0 1016218
09:00+18nw33405 0.0 10161402
12:00+21nw44335 0.0 10151937
15:00+22wnw45315 0.0 10142035
18:00+20w47440 0.0 1014298
21:00+15sw33540 0.0 101323
29 july, thu
thu2900:00+14sw475616 0.0 1013100
03:00+15sw511575 0.0 1012191
06:00+17sw511545 0.0 1011316
09:00+21sw58537 0.0 1010477
12:00+25wsw10104978 0.1 10101508
15:00+24wsw6953100 0.6 10091607
18:00+17sw51193100 1.3 1009504
21:00+16s31092100 2.3 1008386
30 july, fri
fri3000:00+16ssw51094100 0.1 1006431
03:00+16ssw51095100 0.9 1005412
06:00+16sw599494 0.6 1004425
09:00+18wsw5793100 0.7 1004648
12:00+23wnw796647 0.5 10041258
15:00+22wnw8107660 1.5 10051151
18:00+22wnw597720 0.6 1006605
21:00+18w41179100 0.9 1007187